Fulton County Airport Brown Field
KFTY : rendu visible

Aérodrome :











RETROUVEZ-NOUS SUR...

 
LOGIN :

S'inscrire | Disclaimer

   EN    FR    IT 

 









Légende :    VFR   VFR Marginal   IFR   IFR Intensif   IFR Très Intensif
Visi : 
Plafond : 
>= 8 km
>= 3000ft
5 à 8 km
1000 à 3000 ft
1500m à 5 km
500 à 1000 ft
800 à 1500m
200 à 500 ft
< 800m
< 200 ft
Symboles :   Orages  Brouillard  Fortes neiges  Fortes précipitations  Vent > 20 kt






- Altitude de l'aérodrome : 841 ft


KFTY - Fulton County Brown Field

DERNIER METAR :
  • 020953Z 00000KT 10SM CLR 04/02 A3006 RMK AO2 SLP179 T00440017

METARs EXPIRÉS :
  • 020853Z AUTO 00000KT 10SM CLR 04/02 A3005 RMK AO2 SLP176 T00440022 51007
  • 020753Z AUTO 00000KT 10SM CLR 04/02 A3004 RMK AO2 SLP171 T00440022

TAF KFTY
Valide du 02 à 06h jusqu'au 03 à 06h UTC


020520Z 0206/0306 VRB03KT P6SM SCT250
FM021700 31006KT P6SM SCT200
FM030000 00000KT P6SM SCT250



MET'MAP, la Météo Aéronautique d'un coup d'oeil ! - Copyright ORBIFLY Décembre 2007 - Disclaimer

ORBIFLY MET'MAP TEAM :

Programmation & Développement : Alexandra Zaïnal
Sur une idée originale de : Baudouin d'Aumeries
Assistance à la programmation : Marc-Olivier Méhu
Soutien technique & logistique : Manuel Goepfert

Contact : metmap@orbifly.com




SOURCES & CREDITS :

   NOAA       Earth
Advisory